This is the latest recevied weather packets stored in our database for station/object W5LND-10. If no packets are shown the sender has not sent any weather packets the latest 10 day(s).
| Time | Temp. | Humidity | Pressure | Rain* | Wind** | Luminosity | Snow |
|---|---|---|---|---|---|---|---|
| 1777844475 | 25° C | 36% | 1012.8 hPa | 0 mm | - | 603 W/m² | - |
| 1777844175 | 25° C | 36% | 1012.8 hPa | 0 mm | - | 504 W/m² | - |
| 1777843875 | 25° C | 37% | 1012.9 hPa | 0 mm | - | 540 W/m² | - |
| 1777843575 | 25° C | 36% | 1013.1 hPa | 0 mm | - | 427 W/m² | - |
| 1777843275 | 25° C | 35% | 1013.3 hPa | 0 mm | - | 390 W/m² | - |
| 1777842975 | 25° C | 36% | 1013.5 hPa | 0 mm | - | 645 W/m² | - |
| 1777842675 | 25.56° C | 36% | 1013.6 hPa | 0 mm | - | 568 W/m² | - |
| 1777842375 | 25.56° C | 36% | 1013.5 hPa | 0 mm | - | 512 W/m² | - |
| 1777842075 | 25.56° C | 36% | 1013.8 hPa | 0 mm | - | 786 W/m² | - |
| 1777841775 | 25° C | 37% | 1013.9 hPa | 0 mm | - | 865 W/m² | - |
| 1777841475 | 25° C | 37% | 1013.9 hPa | 0 mm | - | 886 W/m² | - |
| 1777841175 | 25° C | 36% | 1014 hPa | 0 mm | - | 563 W/m² | - |
| 1777840875 | 25° C | 35% | 1014.2 hPa | 0 mm | - | 898 W/m² | - |
| 1777840575 | 25° C | 36% | 1014.3 hPa | 0 mm | - | 1018 W/m² | - |
| 1777840275 | 25° C | 36% | 1014.5 hPa | 0 mm | - | 1021 W/m² | - |
| 1777839975 | 25° C | 37% | 1014.5 hPa | 0 mm | - | 972 W/m² | - |
| 1777839675 | 25° C | 36% | 1014.6 hPa | 0 mm | - | 1009 W/m² | - |
| 1777839375 | 25° C | 36% | 1014.6 hPa | 0 mm | - | 1009 W/m² | - |
| 1777839075 | 25° C | 37% | 1014.7 hPa | 0 mm | - | 1004 W/m² | - |
| 1777838775 | 24.44° C | 36% | 1014.7 hPa | 0 mm | - | 1034 W/m² | - |
| 1777838475 | 24.44° C | 37% | 1015 hPa | 0 mm | - | 949 W/m² | - |
| 1777838175 | 24.44° C | 37% | 1015.1 hPa | 0 mm | - | 967 W/m² | - |
| 1777837875 | 24.44° C | 38% | 1015.2 hPa | 0 mm | - | 942 W/m² | - |
| 1777837575 | 24.44° C | 37% | 1015.3 hPa | 0 mm | - | 744 W/m² | - |
| 1777837275 | 24.44° C | 37% | 1015.3 hPa | 0 mm | - | 842 W/m² | - |
* Rain latest hour (hover to see other rain measurements)
** Current wind speed in m/s (hover to see current wind gust speed)